Flag for United Kingdom Weather past 2 weeks in Southend-on-Sea, England, United Kingdom

Now
39 °F

Clear.


Feels Like: 30 °F
Forecast: 38 / 46 °F
Wind: 16 mph from Southwest

Location: Southend Airport-On-Sea

Current Time: Mar 3, 2015 at 12:17:10 AM

Latest Report: Mar 2, 2015 at 11:50 PM


Visibility: 10 mi

Pressure: 29.98 "Hg

Humidity: 70%

Dew point: 30 °F

Location of Southend-on-SeaLocation

Historic Weather in Southend-on-Sea — Graph

°F

Southend-on-Sea temperature yesterday

Maximum temperature yesterday: 46 °F (at 11:50 AM)
Minimum temperature yesterday: 36 °F (at 3:50 AM)
Average temperature yesterday: 42 °F

Past Weeks' High & Low Weather Summary

 TemperatureHumidityPressure
High52 °F (Feb 25, 2:20 PM)94% (Feb 26, 5:20 AM)30.74 "Hg (Feb 26, 5:20 AM)
Low30 °F (Feb 22, 4:50 AM)32% (Mar 2, 5:20 PM)26.58 "Hg (Feb 23, 2:20 PM)
Average43 °F74%29.87 "Hg
* Reported Feb 15 11:20 PM — Mar 2 11:20 PM, Southend-on-Sea, Weather by CustomWeather, © 2015

Note: Actual official high and low records may vary slightly from our data, if they occured in-between our weather recording intervals... More about our weather records

Advertising

Southend-on-Sea weather history for previous 24 hours

 ConditionsComfort  
Time TempWeatherWind HumidityBarometerVisibility
11:20 PM
Mon, Mar 2
41 °FClear.16 mph61%29.98 "Hg10 mi
10:50 PM41 °FClear.14 mph61%29.98 "Hg10 mi
10:20 PM39 °FClear.14 mph65%29.98 "Hg10 mi
9:50 PM41 °FClear.21 mph61%29.95 "Hg10 mi
9:20 PM41 °FClear.16 mph61%29.95 "Hg10 mi
8:50 PM39 °FClear.15 mph65%29.95 "Hg10 mi
8:20 PM41 °FClear.14 mph57%29.95 "Hg10 mi
7:50 PM43 °FClear.9 mph42%29.92 "Hg10 mi
7:20 PM43 °FPassing clouds.12 mph42%29.92 "HgN/A
6:50 PM43 °FPassing clouds.9 mph46%29.92 "HgN/A
6:20 PM41 °FPassing clouds.6 mph49%29.89 "HgN/A
5:50 PM45 °FPassing clouds.12 mph39%29.89 "HgN/A
5:20 PM46 °FPassing clouds.15 mph32%29.86 "HgN/A
4:50 PM45 °FPassing clouds.12 mph37%29.86 "HgN/A
4:20 PM46 °FSunny.21 mph34%29.83 "Hg10 mi
3:50 PM46 °FSunny.18 mph34%29.83 "Hg10 mi
3:20 PM46 °FPassing clouds.20 mph37%29.83 "HgN/A
2:50 PM45 °FSunny.20 mph39%29.80 "Hg10 mi
2:20 PM46 °FSunny.22 mph40%29.80 "Hg10 mi
1:50 PM45 °FSunny.24 mph42%29.77 "Hg10 mi
1:20 PM46 °FSunny.26 mph40%29.74 "Hg10 mi
12:50 PM45 °FPassing clouds.24 mph42%29.74 "HgN/A
12:20 PM46 °FScattered clouds.24 mph46%29.71 "HgN/A
11:50 AM46 °FScattered clouds.25 mph46%29.71 "HgN/A
11:20 AM45 °FPassing clouds.23 mph53%29.71 "HgN/A
10:50 AM43 °FPassing clouds.24 mph53%29.71 "HgN/A
10:20 AM43 °FPassing clouds.23 mph66%29.68 "HgN/A
9:50 AM43 °FPassing clouds.22 mph66%29.65 "HgN/A
9:20 AM43 °FScattered clouds.18 mph71%29.65 "HgN/A
8:50 AM41 °FPassing clouds.17 mph76%29.65 "HgN/A
8:20 AM41 °FPassing clouds.15 mph70%29.65 "HgN/A
7:50 AM39 °FPassing clouds.14 mph75%29.62 "HgN/A
7:20 AM39 °FSunny.13 mph75%29.62 "Hg10 mi
6:50 AM39 °FSunny.12 mph75%29.62 "Hg10 mi
6:20 AM37 °FClear.10 mph81%29.62 "Hg10 mi
5:50 AM36 °FClear.7 mph87%29.62 "Hg10 mi
5:20 AM37 °FClear.7 mph81%29.62 "Hg10 mi
3:50 AM36 °FClear.9 mph87%29.59 "Hg10 mi
2:50 AM37 °FClear.12 mph81%29.59 "Hg10 mi
1:50 AM37 °FClear.13 mph81%29.56 "Hg10 mi
12:50 AM41 °FClear.13 mph70%29.56 "Hg10 mi
Weather by CustomWeather, © 2015

See weather overviewHow to use our weather pages